Regional Weather Roundup
Issued by NWS

Home | Current Version | Previous Version | Text Only | Print | Product List | Glossary Off
Versions: 1 2 3 4 5 6 7 8 9 10 11 12 13 14 15 16 17 18 19 20 21 22 23 24 25 26 27 28

000
ASUS45 KSLC 232310
RWRUT

UTAH REGIONAL WEATHER ROUNDUP
NATIONAL WEATHER SERVICE SALT LAKE CITY UT
500 PM MDT THU OCT 23 2014

UTZ001>011-023>025-240000-

NORTHERN UTAH

CITY           SKY/WX    TMP DP  RH WIND       PRES   REMARKS
BRIGHAM CITY   PTSUNNY   66  27  22 W3        30.07S
HILL AFB       MOSUNNY   67  34  29 NW5       30.08F
LOGAN          SUNNY     63  39  41 N6        30.07S
OGDEN          MOSUNNY   66  36  32 NW7       30.06F
PROVO AIRPORT  PTSUNNY   72  36  26 CALM      30.08S
SALT LAKE CITY PTSUNNY   63  38  39 W7        30.04F
VERNAL         SUNNY     62  35  36 E3        30.15S
WENDOVER       CLOUDY    57  28  33 S3        30.06S
HEBER CITY     SUNNY     68  27  21 SW13G20   30.11S
WEST JORDAN    SUNNY     64  43  45 NW8       30.07S

$$

UTZ012>022-026-027-240000-

SOUTHERN/CENTRAL UTAH

CITY           SKY/WX    TMP DP  RH WIND       PRES   REMARKS
BLANDING       SUNNY     66  31  27 S6        30.30F
BRYCE CANYON   MOSUNNY   63  28  26 SE13      30.30F
CEDAR CITY     MOSUNNY   67  24  19 SW14      30.16S
DELTA          MOSUNNY   73  25  16 S14       30.08S
HANKSVILLE       N/A     75  28  17 SE9       30.12F
MILFORD        PTSUNNY   72  28  19 S12       30.11S
MOAB/CYNLANDS  SUNNY     72  35  25 NW5       30.11F
PRICE          SUNNY     65  33  30 E6        30.20S
ST GEORGE      CLEAR     77  34  20 SW3       30.07F
KANAB            N/A     73  32  21 S3        30.20S

$$

REGIONAL REPORTS     COLORADO/ARIZONA

CITY           SKY/WX    TMP DP  RH WIND       PRES   REMARKS
CRAIG, CO      MOSUNNY   66  35  31 SW9       30.16F
GRAND JUNCTION SUNNY     67  37  33 W7        30.16F
RIFLE          SUNNY     67  36  31 CALM      30.18F
MONTROSE       SUNNY     70  34  26 N3        30.22S
CORTEZ         SUNNY     68  31  25 NW8       30.25S
PAGE, AZ       PTSUNNY   74  31  20 CALM      30.13F
GRAND CANYON   PTSUNNY   68  30  24 W5        30.28F
KINGMAN        SUNNY     80  35  19 SW10      30.08F
FLAGSTAFF      PTSUNNY   67  30  25 S10       30.31S

$$

REGIONAL REPORTS    NEVADA/IDAHO/WYOMING

CITY           SKY/WX    TMP DP  RH WIND       PRES   REMARKS
LAS VEGAS, NV  MOSUNNY   85  36  17 E3        29.95F
ELY            CLOUDY    67  22  18 S10       30.15R
ELKO           PTSUNNY   71  19  14 W13       30.03F
POCATELLO, ID  MOSUNNY   62  32  32 CALM      30.07F
BURLEY         CLOUDY    60  36  40 NW5       30.05R
EVANSTON, WY   PTSUNNY   62  23  22 W20       30.17S
ROCK SPRINGS   MOSUNNY   60  27  28 S10       30.14F
KEMMERER       PTSUNNY   55  21  26 W21       30.17S

$$



USA.gov is the U.S. government's official web portal to all federal, state and local government web resources and services.